This is the latest recevied weather packets stored in our database for station/object N9BID. If no packets are shown the sender has not sent any weather packets the latest 10 day(s).
| Time | Temp. | Humidity | Pressure | Rain* | Wind** | Luminosity | Snow |
|---|---|---|---|---|---|---|---|
| 1777856138 | 16.11° C | 45% | 995.9 hPa | 0 mm | - | 6 W/m² | - |
| 1777855836 | 16.67° C | 43% | 995.8 hPa | 0 mm | - | 9 W/m² | - |
| 1777855533 | 16.67° C | 42% | 995.8 hPa | 0 mm | - | 12 W/m² | - |
| 1777855230 | 17.22° C | 41% | 995.6 hPa | 0 mm | - | 16 W/m² | - |
| 1777854926 | 17.22° C | 39% | 995.8 hPa | 0 mm | - | 18 W/m² | - |
| 1777854623 | 17.78° C | 39% | 995.6 hPa | 0 mm | - | 21 W/m² | - |
| 1777854320 | 17.78° C | 39% | 995.7 hPa | 0 mm | - | 27 W/m² | - |
| 1777854018 | 17.78° C | 38% | 995.7 hPa | 0 mm | - | 38 W/m² | - |
| 1777853715 | 18.33° C | 39% | 995.6 hPa | 0 mm | - | 43 W/m² | - |
| 1777853411 | 18.33° C | 40% | 995.6 hPa | 0 mm | - | 45 W/m² | - |
| 1777853109 | 18.89° C | 40% | 995.5 hPa | 0 mm | - | 62 W/m² | - |
| 1777852806 | 18.89° C | 39% | 995.4 hPa | 0 mm | - | 75 W/m² | - |
| 1777852504 | 18.89° C | 39% | 995.6 hPa | 0 mm | - | 81 W/m² | - |
| 1777852200 | 18.89° C | 37% | 995.6 hPa | 0 mm | - | 91 W/m² | - |
| 1777851898 | 19.44° C | 38% | 995.3 hPa | 0 mm | - | 104 W/m² | - |
| 1777851596 | 19.44° C | 38% | 995.6 hPa | 0 mm | - | 113 W/m² | - |
| 1777851292 | 19.44° C | 38% | 995.4 hPa | 0 mm | - | 122 W/m² | - |
| 1777850988 | 19.44° C | 38% | 995.6 hPa | 0 mm | - | 135 W/m² | - |
| 1777850685 | 19.44° C | 37% | 995.3 hPa | 0 mm | - | 146 W/m² | - |
| 1777850383 | 20° C | 38% | 995.2 hPa | 0 mm | - | 144 W/m² | - |
| 1777850081 | 20° C | 37% | 995.4 hPa | 0 mm | - | 174 W/m² | - |
| 1777849777 | 20° C | 38% | 995.4 hPa | 0 mm | - | 187 W/m² | - |
| 1777849474 | 20° C | 41% | 995.5 hPa | 0 mm | - | 193 W/m² | - |
| 1777849171 | 19.44° C | 38% | 995.4 hPa | 0 mm | - | 169 W/m² | - |
| 1777848868 | 20° C | 40% | 995.2 hPa | 0 mm | - | 145 W/m² | - |
* Rain latest hour (hover to see other rain measurements)
** Current wind speed in m/s (hover to see current wind gust speed)